When you browse on this site, cookies collect data to enhance your experience and personalize the content and advertising you see.
Visit our Privacy Policy to learn more. By continuing to use the site, you agree to this use of cookies and data.
  • Em Portugal
  • Lista de países
  • Para 7 dias
  • Temperatura da água
  • Mapas de satélite
  • Mapa do tempo
  • Widgets de tempo
  • user-avatar
    Iniciar Sessão

    Previsão horária em Porto Alegre

    Hoje, 19 Fevereiro, Terça-feira

    Tempo Temperatura Precipitação Vento Pressão Humidade
    00:00 +25°C° 0 mm 2 m/s 754 mmHg 81%
    01:00 +24°C° 0 mm 1 m/s 754 mmHg 82%
    02:00 +24°C° 0 mm 1 m/s 754 mmHg 83%
    03:00 +22°C° 0 mm 0 m/s 754 mmHg 84%
    04:00 +21°C° 0 mm 0 m/s 754 mmHg 85%
    05:00 +23°C° 0 mm 1 m/s 754 mmHg 85%
    06:00 +23°C° 0 mm 1 m/s 753 mmHg 86%
    07:00 +25°C° 0 mm 1 m/s 754 mmHg 78%
    08:00 +27°C° 0 mm 2 m/s 754 mmHg 70%
    09:00 +29°C° 0 mm 2 m/s 754 mmHg 63%
    10:00 +31°C° 0 mm 2 m/s 754 mmHg 55%
    11:00 +34°C° 0 mm 2 m/s 753 mmHg 48%
    12:00 +36°C° 0 mm 2 m/s 753 mmHg 41%
    13:00 +36°C° 0 mm 2 m/s 753 mmHg 40%
    14:00 +37°C° 0 mm 2 m/s 752 mmHg 39%
    15:00 +37°C° 0 mm 2 m/s 752 mmHg 38%
    16:00 +36°C° 0 mm 2 m/s 752 mmHg 43%
    17:00 +35°C° 0 mm 2 m/s 752 mmHg 47%
    18:00 +34°C° 0 mm 3 m/s 752 mmHg 52%
    19:00 +31°C° 0 mm 2 m/s 752 mmHg 59%
    20:00 +30°C° 0 mm 2 m/s 753 mmHg 66%
    21:00 +28°C° 0 mm 2 m/s 753 mmHg 74%
    22:00 +27°C° 0 mm 2 m/s 753 mmHg 77%
    23:00 +27°C° 0 mm 1 m/s 754 mmHg 80%

    Amanhã, 20 Fevereiro, Quarta-feira

    Tempo Temperatura Precipitação Vento Pressão Humidade
    00:00 +26°C° 0 mm 1 m/s 754 mmHg 83%
    01:00 +26°C° 0 mm 1 m/s 754 mmHg 84%
    02:00 +24°C° 0 mm 0 m/s 754 mmHg 86%
    03:00 +23°C° 0 mm 0 m/s 754 mmHg 87%
    04:00 +23°C° 0.2 mm 0 m/s 754 mmHg 88%
    05:00 +23°C° 0.2 mm 0 m/s 754 mmHg 89%
    06:00 +22°C° 0.2 mm 0 m/s 754 mmHg 90%
    07:00 +24°C° 0 mm 0 m/s 755 mmHg 81%
    08:00 +26°C° 0 mm 0 m/s 755 mmHg 73%
    09:00 +28°C° 0 mm 0 m/s 755 mmHg 65%
    10:00 +32°C° 0 mm 1 m/s 755 mmHg 58%
    11:00 +34°C° 0 mm 1 m/s 755 mmHg 50%
    12:00 +36°C° 0 mm 1 m/s 755 mmHg 43%
    13:00 +37°C° 0 mm 2 m/s 754 mmHg 40%
    14:00 +37°C° 0 mm 3 m/s 754 mmHg 37%
    15:00 +37°C° 0 mm 4 m/s 754 mmHg 34%
    16:00 +36°C° 0 mm 4 m/s 754 mmHg 40%
    17:00 +35°C° 0 mm 4 m/s 754 mmHg 45%
    18:00 +33°C° 0 mm 4 m/s 754 mmHg 51%
    19:00 +30°C° 0 mm 4 m/s 754 mmHg 58%
    20:00 +29°C° 0 mm 3 m/s 755 mmHg 64%
    21:00 +27°C° 0 mm 3 m/s 755 mmHg 70%
    22:00 +26°C° 0 mm 2 m/s 756 mmHg 74%
    23:00 +25°C° 0 mm 2 m/s 756 mmHg 79%

    Depois de amanhã, 21 Fevereiro, Quinta-feira

    Tempo Temperatura Precipitação Vento Pressão Humidade
    00:00 +25°C° 0 mm 2 m/s 756 mmHg 83%
    01:00 +24°C° 0 mm 1 m/s 756 mmHg 85%
    02:00 +24°C° 0 mm 1 m/s 756 mmHg 87%
    03:00 +23°C° 0 mm 1 m/s 756 mmHg 89%
    04:00 +23°C° 0 mm 1 m/s 756 mmHg 88%
    05:00 +21°C° 0 mm 0 m/s 756 mmHg 88%
    06:00 +20°C° 0 mm 0 m/s 756 mmHg 88%
    07:00 +23°C° 0 mm 0 m/s 757 mmHg 77%
    08:00 +25°C° 0 mm 0 m/s 757 mmHg 67%
    09:00 +27°C° 0 mm 0 m/s 758 mmHg 57%
    10:00 +31°C° 0 mm 1 m/s 757 mmHg 49%
    11:00 +33°C° 0 mm 1 m/s 757 mmHg 40%
    12:00 +37°C° 0 mm 2 m/s 757 mmHg 32%
    13:00 +37°C° 0 mm 2 m/s 757 mmHg 31%
    14:00 +38°C° 0 mm 3 m/s 756 mmHg 29%
    15:00 +38°C° 0 mm 4 m/s 756 mmHg 28%
    16:00 +36°C° 0 mm 4 m/s 756 mmHg 35%
    17:00 +35°C° 0 mm 5 m/s 755 mmHg 43%
    18:00 +33°C° 0 mm 5 m/s 755 mmHg 50%
    19:00 +30°C° 0 mm 5 m/s 756 mmHg 58%
    20:00 +28°C° 0 mm 4 m/s 757 mmHg 66%
    21:00 +27°C° 0 mm 4 m/s 757 mmHg 74%
    22:00 +26°C° 0 mm 4 m/s 757 mmHg 76%
    23:00 +26°C° 0 mm 3 m/s 757 mmHg 78%

    22 Fevereiro, Sexta-feira

    Tempo Temperatura Precipitação Vento Pressão Humidade
    00:00 +25°C° 0 mm 3 m/s 757 mmHg 80%
    01:00 +24°C° 0 mm 2 m/s 757 mmHg 82%
    02:00 +24°C° 0 mm 2 m/s 756 mmHg 83%
    03:00 +23°C° 0 mm 1 m/s 756 mmHg 85%
    04:00 +23°C° 0 mm 1 m/s 756 mmHg 85%
    05:00 +23°C° 0 mm 1 m/s 756 mmHg 85%
    06:00 +23°C° 0 mm 1 m/s 756 mmHg 86%
    07:00 +25°C° 0 mm 1 m/s 756 mmHg 77%
    08:00 +28°C° 0 mm 1 m/s 756 mmHg 68%
    09:00 +30°C° 0 mm 1 m/s 757 mmHg 60%
    10:00 +33°C° 0 mm 1 m/s 756 mmHg 52%
    11:00 +35°C° 0 mm 1 m/s 756 mmHg 44%
    12:00 +36°C° 0 mm 0 m/s 756 mmHg 36%
    13:00 +40°C° 0 mm 1 m/s 755 mmHg 34%
    14:00 +40°C° 0 mm 1 m/s 754 mmHg 31%
    15:00 +41°C° 0 mm 1 m/s 754 mmHg 28%
    16:00 +40°C° 0 mm 2 m/s 754 mmHg 33%
    17:00 +38°C° 0 mm 2 m/s 754 mmHg 37%
    18:00 +37°C° 0 mm 3 m/s 754 mmHg 41%
    19:00 +35°C° 0 mm 3 m/s 754 mmHg 48%
    20:00 +33°C° 0 mm 3 m/s 754 mmHg 56%
    21:00 +30°C° 0 mm 2 m/s 755 mmHg 64%
    22:00 +29°C° 0 mm 2 m/s 755 mmHg 67%
    23:00 +28°C° 0 mm 1 m/s 755 mmHg 69%

    23 Fevereiro, Sábado

    Tempo Temperatura Precipitação Vento Pressão Humidade
    00:00 +27°C° 0 mm 1 m/s 755 mmHg 72%
    01:00 +27°C° 0 mm 1 m/s 754 mmHg 73%
    02:00 +24°C° 0 mm 0 m/s 754 mmHg 75%
    03:00 +24°C° 0 mm 0 m/s 753 mmHg 76%
    04:00 +24°C° 0 mm 0 m/s 753 mmHg 77%
    05:00 +24°C° 0 mm 0 m/s 753 mmHg 78%
    06:00 +23°C° 0 mm 0 m/s 753 mmHg 78%
    07:00 +25°C° 0 mm 0 m/s 754 mmHg 72%
    08:00 +27°C° 0 mm 0 m/s 754 mmHg 65%
    09:00 +32°C° 0 mm 1 m/s 754 mmHg 58%
    10:00 +34°C° 0 mm 1 m/s 753 mmHg 51%
    11:00 +36°C° 0 mm 1 m/s 753 mmHg 44%
    12:00 +39°C° 0 mm 1 m/s 752 mmHg 37%
    13:00 +40°C° 0 mm 2 m/s 752 mmHg 34%
    14:00 +40°C° 0 mm 2 m/s 751 mmHg 31%
    15:00 +41°C° 0 mm 2 m/s 751 mmHg 28%
    16:00 +39°C° 0 mm 3 m/s 751 mmHg 35%
    17:00 +37°C° 0 mm 3 m/s 751 mmHg 41%
    18:00 +35°C° 0 mm 4 m/s 751 mmHg 48%
    19:00 +34°C° 0.1 mm 3 m/s 751 mmHg 56%
    20:00 +31°C° 0.1 mm 3 m/s 751 mmHg 64%
    21:00 +30°C° 0.1 mm 3 m/s 752 mmHg 72%
    22:00 +29°C° 0.1 mm 2 m/s 752 mmHg 75%
    23:00 +28°C° 0.1 mm 2 m/s 751 mmHg 77%

    24 Fevereiro, Domingo

    Tempo Temperatura Precipitação Vento Pressão Humidade
    00:00 +27°C° 0.1 mm 2 m/s 751 mmHg 80%
    01:00 +27°C° 0.1 mm 1 m/s 751 mmHg 80%
    02:00 +27°C° 0.1 mm 1 m/s 750 mmHg 81%
    03:00 +25°C° 0.1 mm 0 m/s 750 mmHg 82%
    04:00 +24°C° 0.7 mm 0 m/s 749 mmHg 83%
    05:00 +26°C° 0.7 mm 1 m/s 749 mmHg 85%
    06:00 +26°C° 0.7 mm 1 m/s 749 mmHg 86%
    07:00 +26°C° 2.5 mm 1 m/s 749 mmHg 87%
    08:00 +26°C° 2.5 mm 1 m/s 750 mmHg 87%
    09:00 +26°C° 2.5 mm 2 m/s 750 mmHg 87%
    10:00 +26°C° 4.7 mm 1 m/s 750 mmHg 87%
    11:00 +27°C° 4.7 mm 1 m/s 750 mmHg 88%
    12:00 +27°C° 4.7 mm 1 m/s 750 mmHg 88%
    13:00 +27°C° 0.9 mm 2 m/s 750 mmHg 87%
    14:00 +27°C° 0.9 mm 3 m/s 750 mmHg 85%
    15:00 +27°C° 0.9 mm 4 m/s 750 mmHg 84%
    16:00 +27°C° 0.3 mm 4 m/s 750 mmHg 85%
    17:00 +26°C° 0.3 mm 4 m/s 750 mmHg 86%
    18:00 +26°C° 0.3 mm 4 m/s 750 mmHg 87%
    19:00 +26°C° 0.3 mm 3 m/s 750 mmHg 88%
    20:00 +26°C° 0.3 mm 3 m/s 750 mmHg 89%
    21:00 +25°C° 0.3 mm 3 m/s 750 mmHg 90%
    22:00 +25°C° 0 mm 2 m/s 751 mmHg 90%
    23:00 +25°C° 0 mm 2 m/s 751 mmHg 91%
    Mostrar mais